Find Starlink 3732

NORAD ID: 52126 Int'l Des: 2022-029 Owner: SPXS Country: US Constellation: starlink operational
LEOCIRCULAR

当前视图

正在加载3D地球...

About Starlink 3732

Starlink 3732 (NORAD 52126) is a starlink constellation satellite (v1.5) launched Mar 19, 2022 by SPXS of US. It operates in LEO, CIRCULAR orbit with a mass of 297.00 kg.

关于 Starlink 3732

正在加载描述...

即将过境

Passes for default location (London). Set your location on the main map for personalized predictions.

高度历史

Loading altitude history...

两行轨道根数

1 52126U 22029AQ 26178.05956612 -.00000173 00000-0 72025-5 0 9992
2 52126 53.1604 297.9828 0001173 88.7477 271.3649 15.08834597237436
Epoch: Jun 27, 2026 • Age: 11 hours

当前状态

高度 552.2 km
速度 7.59 km/s
星下点 -36.71°S, 54.52°E
发射日期 Mar 19, 2022
运行时间 4.2 years
类型 internet

技术详情

分类 Payload
质量 297.00 kg
干质量 275.00 kg
总质量 297.00 kg
长度 0.20 m
直径 2.80 m
跨度 9.00 m
形状 Box + pan
制造商 SPXS
平台类型 Starlink
阶段状态 In Orbit
所有者/国家 SPXS/US

Most Searched